Regional Weather Roundup
Issued by NWS New Orleans/Baton Rouge, LA

Home | Current Version | Previous Version | Text Only | Print | Product List | Glossary On
Versions: 1 2 3 4 5 6 7 8 9 10 11 12 13 14 15 16 17 18 19 20 21 22 23 24 25 26 27
000
ASUS44 KLIX 290414
RWRLIX
NEW ORLEANS REGIONAL WEATHER ROUNDUP
NATIONAL WEATHER SERVICE NEW ORLEANS LA
1100 PM CDT FRI APR 28 2017

NOTE: "FAIR" INDICATES FEW OR NO CLOUDS BELOW 12,000 FEET WITH NO
      SIGNIFICANT WEATHER AND/OR OBSTRUCTIONS TO VISIBILITY.
      SKY/WX - SKY CONDITION AND SIGNIFICANT WEATHER.
      TMP - AIR TEMPERATURE.     DP    - DEWPOINT TEMPERATURE.
      RH  - RELATIVE HUMIDITY.   PRES  - PRESSURE.
      HI  - HEAT INDEX.          WCI   - WIND CHILL INDEX.

*  THESE STATIONS ARE NOT NWS OR FAA STATIONS AND ARE NOT UNDER
   NWS QUALITY CONTROL.

LAZ038-040-048-061>063-065>067-069-290500-
SOUTHEAST LOUISIANA

CITY           SKY/WX    TMP DP  RH WIND       PRES   REMARKS
N.O. INTL ARPT CLOUDY    79  74  84 SE14      29.93S
N.O. LAKEFRONT CLOUDY    79  75  87 SE16      29.95S
N.O. DOWNTOWN*   N/A     79  74  84 VRB6        N/A
RESERVE*       NOT AVBL
SLIDELL        CLOUDY    78  74  87 SE10      29.96R
BATON ROUGE    CLOUDY    80  73  79 SE13      29.90R
BOOTHVILLE     CLOUDY    77  75  93 SE9       29.96S FOG
BELLE CHASSE   CLOUDY    79  76  90 SE13      29.94R
BOGALUSA*      NOT AVBL
GALLIANO*      CLOUDY    78  73  83 SE10G16   29.93R
NEW ROADS*     CLOUDY    79  73  81 SE14G20   29.89R
GONZALES*      CLOUDY    80  73  79 SE8       29.91R
HAMMOND*       CLOUDY    77  72  83 SE13      29.94R
HOUMA*         CLOUDY    78  74  88 SE15      29.91S
PORT FOURCHON* MOCLDY    77  75  94 SE14G22   29.92R FOG

$$

MSZ070-080>082-290500-
SOUTHERN MISSISSIPPI

CITY           SKY/WX    TMP DP  RH WIND       PRES   REMARKS
MCCOMB         CLOUDY    77  71  82 SE15G24   29.94R
GULFPORT       CLOUDY    78  76  93 SE17      29.98S FOG
BILOXI         CLOUDY    77  74  91 SE10      29.99R
PASCAGOULA     CLOUDY    77  72  84 SE13      30.01R

$$

COASTAL OBSERVATIONS
LAKE AND NEARSHORE STATIONS

STATION/POSITION TIME  TEMP    WIND        PRES    WAVE
                       AIR SEA DIR/SP/G            HT/PER
                 (UTC) (F)     (DEG/KT/KT) (MB)    (FT/S)
PASCAGOULA       0348   77     120/  9/ 17 1015.8
WAVELAND YACHT   0348   77 77  140/ 14/ 16 1015.0
GRAND ISLE       0348   77 77  130/  9/ 14 1013.3
SOUTHWEST PASS   0348          130/ 20/ 23   N/A
NEW CANAL        0348   78 76  140/  5/ 11 1013.7
SHELL BEACH      0348   77 79  120/ 19/ 23 1014.2

OFFSHORE STATIONS

STATION/POSITION TIME  TEMP    WIND        PRES    WAVE
                       AIR SEA DIR/SP/G            HT/PER
                 (UTC) (F)     (DEG/KT/KT) (MB)    (FT/S)
64 S DAUPHIN ISL 0350   77 76  130/ 16/ 19 1015.5    5/ 6

$$





USA.gov is the U.S. government's official web portal to all federal, state and local government web resources and services.